Location: Diebersbach
(48.5163°N, 8.0558°E)
Time: 14:15:41
(UTC+00:00)

Meteor 2-19 Rocket - Pass Details

Date: 20 June 2021
Orbit: 935 x 959 km, 82.5° (Epoch: 29 July)

Event Time Altitude Azimuth Distance (km) Brightness Sun altitude
Exits shadow 01:16:27 18° 187° (S) 2,141 5.7 -14.2°
Maximum altitude 01:21:09 89° 98° (E) 961 4.5 -13.8°
Drops below altitude 10° 01:27:19 10° 10° (N) 2,685 8.1 -13.4°
Sets 01:29:48 0° 10° (N) 3,630 9.0 -13.2°
